Iridium 67 - Orbit

View from above orbital plane
View from above orbital plane
View from above satellite
View from above satellite

Ground track
Ground track

The orbit data is extracted from the following two-line orbital elements,

1 25290U 98021F   13140.45495954  .00000155  00000-0  48289-4 0   696
2 25290 086.3959 126.2030 0002280 104.7986 255.3462 14.34219077791643
Epoch (UTC): 20 May 2013 10:55:08
Eccentricity: 0.0002280
inclination: 86.3959°
perigee height: 776 km
apogee height: 779 km
right ascension of ascending node: 126.2030°
argument of perigee: 104.7986°
revolutions per day: 14.34219077
mean anomaly at epoch: 255.3462°
orbit number at epoch: 79164

The dashed part of the orbit path shows where the satellite is in the earth's shadow,  

Developed and maintained by Chris Peat, Heavens-Above GmbH. Please read the updated FAQ before sending e-mail. Imprint. DLR